| time (UTC) | temp F | wind direction | speed MPH | gust MPH | rain 1hr in | rain 24hr in | rain mn in | humidity % | barometer mb |
| 20260902185057 | 64 | 286 | 9.0 | 15.0 | 0.00 | 0.00 | 0.00 | 86 | 1021.7 |
| 20260902184559 | 64 | 259 | 10.0 | 15.0 | 0.00 | 0.00 | 0.00 | 90 | 1021.6 |
| 20260902184100 | 64 | 271 | 10.0 | 15.0 | 0.00 | 0.00 | 0.00 | 90 | 1021.7 |
| 20260902183556 | 65 | 283 | 9.0 | 14.0 | 0.00 | 0.00 | 0.00 | 90 | 1021.8 |
| 20260902183100 | 65 | 292 | 10.0 | 15.0 | 0.00 | 0.00 | 0.00 | 90 | 1021.9 |
| 20260902182556 | 65 | 274 | 10.0 | 16.0 | 0.00 | 0.00 | 0.00 | 89 | 1021.8 |
| 20260902182056 | 65 | 294 | 11.0 | 16.0 | 0.00 | 0.00 | 0.00 | 89 | 1021.8 |
| 20260902181606 | 65 | 296 | 11.0 | 16.0 | 0.00 | 0.00 | 0.00 | 88 | 1021.8 |
| 20260902181056 | 66 | 311 | 10.0 | 15.0 | 0.00 | 0.00 | 0.00 | 87 | 1021.9 |
| 20260902180557 | 66 | 303 | 9.0 | 15.0 | 0.00 | 0.00 | 0.00 | 86 | 1021.9 |
| 20260902175556 | 66 | 319 | 9.0 | 14.0 | 0.00 | 0.00 | 0.00 | 86 | 1022.1 |
| 20260902175057 | 66 | 317 | 9.0 | 14.0 | 0.00 | 0.00 | 0.00 | 86 | 1022.0 |
| 20260902174600 | 66 | 304 | 10.0 | 14.0 | 0.00 | 0.00 | 0.00 | 86 | 1022.0 |
| 20260902174056 | 66 | 305 | 9.0 | 14.0 | 0.00 | 0.00 | 0.00 | 85 | 1022.1 |
| 20260902173555 | 66 | 310 | 8.0 | 12.0 | 0.00 | 0.00 | 0.00 | 84 | 1022.2 |
| 20260902173106 | 67 | 320 | 8.0 | 13.0 | 0.00 | 0.00 | 0.00 | 84 | 1022.2 |
| 20260902172600 | 67 | 344 | 9.0 | 14.0 | 0.00 | 0.00 | 0.00 | 84 | 1022.2 |
| 20260902172059 | 68 | 332 | 9.0 | 14.0 | 0.00 | 0.00 | 0.00 | 83 | 1022.1 |
| 20260902171610 | 68 | 319 | 7.0 | 14.0 | 0.00 | 0.00 | 0.00 | 82 | 1022.2 |
| 20260902171057 | 68 | 300 | 9.0 | 14.0 | 0.00 | 0.00 | 0.00 | 82 | 1022.3 |
| 20260902170558 | 68 | 269 | 9.0 | 16.0 | 0.00 | 0.00 | 0.00 | 82 | 1022.3 |
| 20260902170103 | 68 | 342 | 11.0 | 16.0 | 0.00 | 0.00 | 0.00 | 81 | 1022.2 |
| 20260902165556 | 69 | 306 | 11.0 | 16.0 | 0.00 | 0.00 | 0.00 | 81 | 1022.2 |
| 20260902165100 | 69 | 324 | 11.0 | 19.0 | 0.00 | 0.00 | 0.00 | 81 | 1022.0 |
| 20260902164610 | 69 | 316 | 10.0 | 19.0 | 0.00 | 0.00 | 0.00 | 81 | 1022.1 |
| 20260902164059 | 69 | 281 | 10.0 | 17.0 | 0.00 | 0.00 | 0.00 | 81 | 1022.0 |
| 20260902163556 | 68 | 298 | 11.0 | 19.0 | 0.00 | 0.00 | 0.00 | 82 | 1021.9 |
| 20260902163101 | 68 | 360 | 12.0 | 19.0 | 0.00 | 0.00 | 0.00 | 81 | 1022.1 |
| 20260902162556 | 68 | 304 | 12.0 | 19.0 | 0.00 | 0.00 | 0.00 | 81 | 1022.1 |
| 20260902162057 | 68 | 301 | 13.0 | 19.0 | 0.00 | 0.00 | 0.00 | 82 | 1022.2 |
| 20260902161609 | 68 | 360 | 14.0 | 20.0 | 0.00 | 0.00 | 0.00 | 83 | 1022.1 |
| 20260902161054 | 68 | 350 | 14.0 | 21.0 | 0.00 | 0.00 | 0.00 | 83 | 1022.2 |
| 20260902160555 | 68 | 360 | 14.0 | 21.0 | 0.00 | 0.00 | 0.00 | 83 | 1022.1 |
| 20260902160122 | 67 | 360 | 14.0 | 23.0 | 0.00 | 0.00 | 0.00 | 84 | 1022.1 |
| 20260902155555 | 67 | 360 | 15.0 | 23.0 | 0.00 | 0.00 | 0.00 | 84 | 1022.2 |
| 20260902155055 | 67 | 360 | 16.0 | 23.0 | 0.00 | 0.00 | 0.00 | 84 | 1022.1 |
| 20260902154606 | 67 | 360 | 15.0 | 22.0 | 0.00 | 0.00 | 0.00 | 84 | 1022.1 |
| 20260902154056 | 67 | 360 | 16.0 | 22.0 | 0.00 | 0.00 | 0.00 | 83 | 1022.2 |
| 20260902153556 | 67 | 360 | 14.0 | 22.0 | 0.00 | 0.00 | 0.00 | 84 | 1022.1 |
| 20260902153100 | 67 | 360 | 15.0 | 23.0 | 0.00 | 0.00 | 0.00 | 84 | 1022.3 |
| 20260902152554 | 67 | 360 | 18.0 | 24.0 | 0.00 | 0.00 | 0.00 | 84 | 1022.1 |
| 20260902152056 | 67 | 360 | 15.0 | 25.0 | 0.00 | 0.00 | 0.00 | 86 | 1022.1 |
| 20260902151605 | 67 | 360 | 17.0 | 25.0 | 0.00 | 0.00 | 0.00 | 85 | 1022.2 |
| 20260902151055 | 67 | 360 | 18.0 | 25.0 | 0.00 | 0.00 | 0.00 | 84 | 1022.1 |
| 20260902150556 | 67 | 360 | 15.0 | 25.0 | 0.00 | 0.00 | 0.00 | 84 | 1022.2 |
| 20260902150059 | 67 | 360 | 18.0 | 25.0 | 0.00 | 0.00 | 0.00 | 84 | 1022.1 |
| 20260902145555 | 67 | 360 | 16.0 | 25.0 | 0.00 | 0.00 | 0.00 | 83 | 1022.1 |
| 20260902145056 | 66 | 360 | 17.0 | 25.0 | 0.00 | 0.00 | 0.00 | 84 | 1022.2 |
| 20260902144558 | 66 | 360 | 16.0 | 26.0 | 0.00 | 0.00 | 0.00 | 85 | 1022.2 |
| 20260902144057 | 66 | 360 | 16.0 | 27.0 | 0.00 | 0.00 | 0.00 | 86 | 1022.2 |
| 20260902143556 | 66 | 360 | 18.0 | 27.0 | 0.00 | 0.00 | 0.00 | 87 | 1022.1 |
| 20260902143100 | 66 | 360 | 19.0 | 26.0 | 0.00 | 0.00 | 0.00 | 87 | 1022.2 |
| 20260902142556 | 66 | 360 | 16.0 | 25.0 | 0.00 | 0.00 | 0.00 | 88 | 1022.3 |
| 20260902142056 | 66 | 304 | 17.0 | 25.0 | 0.00 | 0.00 | 0.00 | 87 | 1022.5 |
| 20260902141600 | 66 | 360 | 17.0 | 25.0 | 0.00 | 0.00 | 0.00 | 87 | 1022.5 |
| 20260902141055 | 66 | 360 | 16.0 | 24.0 | 0.00 | 0.00 | 0.00 | 87 | 1022.5 |
| 20260902140555 | 67 | 360 | 15.0 | 26.0 | 0.00 | 0.00 | 0.00 | 86 | 1022.5 |
| 20260902140108 | 67 | 360 | 17.0 | 26.0 | 0.00 | 0.00 | 0.00 | 85 | 1022.6 |
| 20260902135556 | 67 | 360 | 15.0 | 24.0 | 0.00 | 0.00 | 0.00 | 83 | 1022.5 |
| 20260902135055 | 66 | 360 | 17.0 | 27.0 | 0.00 | 0.00 | 0.00 | 84 | 1022.6 |
| 20260902134604 | 66 | 360 | 19.0 | 27.0 | 0.00 | 0.00 | 0.00 | 83 | 1022.6 |
| 20260902134055 | 66 | 300 | 19.0 | 27.0 | 0.00 | 0.00 | 0.00 | 83 | 1022.7 |
| 20260902133555 | 67 | 360 | 16.0 | 24.0 | 0.00 | 0.00 | 0.00 | 83 | 1022.7 |
| 20260902133107 | 66 | 323 | 17.0 | 24.0 | 0.00 | 0.00 | 0.00 | 84 | 1022.7 |
| 20260902132555 | 66 | 360 | 18.0 | 26.0 | 0.00 | 0.00 | 0.00 | 83 | 1022.9 |
| 20260902132055 | 66 | 304 | 19.0 | 26.0 | 0.00 | 0.00 | 0.00 | 84 | 1022.8 |
| 20260902131559 | 66 | 279 | 17.0 | 26.0 | 0.00 | 0.00 | 0.00 | 84 | 1022.7 |
| 20260902131055 | 66 | 295 | 19.0 | 25.0 | 0.00 | 0.00 | 0.00 | 84 | 1022.7 |
| 20260902130555 | 66 | 322 | 15.0 | 23.0 | 0.00 | 0.00 | 0.00 | 85 | 1022.9 |
| 20260902130105 | 66 | 360 | 16.0 | 24.0 | 0.00 | 0.00 | 0.00 | 85 | 1023.0 |
| 20260902125556 | 65 | 360 | 15.0 | 24.0 | 0.00 | 0.00 | 0.00 | 86 | 1023.0 |
| 20260902125056 | 66 | 279 | 14.0 | 27.0 | 0.00 | 0.00 | 0.00 | 86 | 1023.0 |
| 20260902124604 | 65 | 360 | 18.0 | 27.0 | 0.00 | 0.00 | 0.00 | 86 | 1023.0 |
| 20260902124054 | 65 | 360 | 16.0 | 27.0 | 0.00 | 0.00 | 0.00 | 86 | 1023.2 |
| 20260902123556 | 66 | 360 | 18.0 | 28.0 | 0.00 | 0.00 | 0.00 | 85 | 1023.0 |
| 20260902123112 | 65 | 360 | 17.0 | 28.0 | 0.00 | 0.00 | 0.00 | 87 | 1023.0 |
| 20260902122559 | 65 | 360 | 19.0 | 27.0 | 0.00 | 0.00 | 0.00 | 87 | 1023.1 |
| 20260902122055 | 65 | 360 | 19.0 | 26.0 | 0.00 | 0.00 | 0.00 | 88 | 1023.0 |
| 20260902121557 | 65 | 360 | 20.0 | 29.0 | 0.00 | 0.00 | 0.00 | 88 | 1023.0 |
| 20260902121055 | 65 | 360 | 19.0 | 29.0 | 0.00 | 0.00 | 0.00 | 88 | 1023.0 |
| 20260902120555 | 65 | 360 | 20.0 | 28.0 | 0.00 | 0.00 | 0.00 | 88 | 1023.0 |
| 20260902120109 | 65 | 360 | 19.0 | 28.0 | 0.00 | 0.00 | 0.00 | 89 | 1023.0 |
| 20260902115555 | 65 | 360 | 19.0 | 30.0 | 0.00 | 0.00 | 0.00 | 88 | 1022.9 |
| 20260902115058 | 65 | 360 | 21.0 | 30.0 | 0.00 | 0.00 | 0.00 | 88 | 1023.0 |
| 20260902114605 | 65 | 360 | 19.0 | 30.0 | 0.00 | 0.00 | 0.00 | 88 | 1023.0 |
| 20260902114053 | 65 | 360 | 20.0 | 29.0 | 0.00 | 0.00 | 0.00 | 87 | 1023.0 |
| 20260902113556 | 65 | 360 | 21.0 | 28.0 | 0.00 | 0.00 | 0.00 | 87 | 1023.1 |
| 20260902113104 | 65 | 360 | 18.0 | 29.0 | 0.00 | 0.00 | 0.00 | 88 | 1023.2 |
| 20260902112553 | 64 | 360 | 20.0 | 29.0 | 0.00 | 0.00 | 0.00 | 87 | 1023.3 |
| 20260902112057 | 64 | 360 | 20.0 | 29.0 | 0.00 | 0.00 | 0.00 | 87 | 1023.4 |
| 20260902111607 | 64 | 327 | 22.0 | 29.0 | 0.00 | 0.00 | 0.00 | 88 | 1023.4 |
| 20260902111054 | 64 | 360 | 23.0 | 29.0 | 0.00 | 0.00 | 0.00 | 87 | 1023.4 |
| 20260902110556 | 64 | 360 | 20.0 | 29.0 | 0.00 | 0.00 | 0.00 | 88 | 1023.3 |
| 20260902110109 | 63 | 360 | 19.0 | 29.0 | 0.00 | 0.00 | 0.00 | 89 | 1023.4 |
| 20260902105554 | 63 | 360 | 20.0 | 28.0 | 0.00 | 0.00 | 0.00 | 90 | 1023.4 |
| 20260902105054 | 63 | 360 | 19.0 | 28.0 | 0.00 | 0.00 | 0.00 | 91 | 1023.4 |
| 20260902104611 | 63 | 300 | 20.0 | 27.0 | 0.00 | 0.00 | 0.00 | 91 | 1023.3 |
| 20260902104055 | 63 | 315 | 19.0 | 25.0 | 0.00 | 0.00 | 0.00 | 91 | 1023.4 |
| 20260902103553 | 63 | 329 | 17.0 | 28.0 | 0.00 | 0.00 | 0.00 | 91 | 1023.4 |
| 20260902103100 | 63 | 360 | 18.0 | 28.0 | 0.00 | 0.00 | 0.00 | 91 | 1023.4 |
| 20260902102553 | 63 | 360 | 18.0 | 28.0 | 0.00 | 0.00 | 0.00 | 90 | 1023.3 |
| 20260902102053 | 63 | 360 | 20.0 | 28.0 | 0.00 | 0.00 | 0.00 | 89 | 1023.2 |
| 20260902101601 | 63 | 360 | 19.0 | 28.0 | 0.00 | 0.00 | 0.00 | 88 | 1023.2 |
| 20260902101055 | 63 | 348 | 16.0 | 28.0 | 0.00 | 0.00 | 0.00 | 89 | 1023.2 |
| 20260902100556 | 63 | 360 | 19.0 | 28.0 | 0.00 | 0.00 | 0.00 | 89 | 1023.2 |
| 20260902095554 | 62 | 319 | 20.0 | 28.0 | 0.00 | 0.00 | 0.00 | 92 | 1023.0 |
| 20260902095053 | 62 | 360 | 20.0 | 28.0 | 0.00 | 0.00 | 0.00 | 92 | 1023.1 |
| 20260902094601 | 62 | 360 | 21.0 | 29.0 | 0.00 | 0.00 | 0.00 | 92 | 1023.1 |
| 20260902094053 | 62 | 360 | 20.0 | 29.0 | 0.00 | 0.00 | 0.00 | 92 | 1022.9 |
| 20260902093554 | 62 | 360 | 20.0 | 29.0 | 0.00 | 0.00 | 0.00 | 92 | 1022.9 |
| 20260902093055 | 62 | 360 | 20.0 | 30.0 | 0.00 | 0.00 | 0.00 | 92 | 1022.8 |
| 20260902092558 | 62 | 360 | 21.0 | 30.0 | 0.00 | 0.00 | 0.00 | 91 | 1022.8 |
| 20260902092053 | 61 | 360 | 22.0 | 29.0 | 0.00 | 0.00 | 0.00 | 91 | 1022.6 |
| 20260902091601 | 62 | 301 | 19.0 | 30.0 | 0.00 | 0.00 | 0.00 | 92 | 1022.5 |
| 20260902091053 | 62 | 360 | 21.0 | 32.0 | 0.00 | 0.00 | 0.00 | 92 | 1022.5 |
| 20260902090556 | 62 | 309 | 18.0 | 32.0 | 0.00 | 0.00 | 0.00 | 92 | 1022.5 |
| 20260902085552 | 62 | 360 | 19.0 | 30.0 | 0.00 | 0.00 | 0.00 | 92 | 1022.4 |
| 20260902085053 | 62 | 360 | 19.0 | 28.0 | 0.00 | 0.00 | 0.00 | 93 | 1022.3 |
| 20260902084605 | 61 | 360 | 20.0 | 28.0 | 0.00 | 0.00 | 0.00 | 93 | 1022.4 |
| 20260902084056 | 61 | 360 | 19.0 | 27.0 | 0.00 | 0.00 | 0.00 | 94 | 1022.4 |
| 20260902083556 | 61 | 327 | 20.0 | 28.0 | 0.00 | 0.00 | 0.00 | 94 | 1022.3 |
| 20260902083108 | 61 | 360 | 21.0 | 29.0 | 0.00 | 0.00 | 0.00 | 94 | 1022.2 |
| 20260902082556 | 61 | 360 | 20.0 | 29.0 | 0.00 | 0.00 | 0.00 | 94 | 1022.3 |
| 20260902082055 | 61 | 298 | 20.0 | 31.0 | 0.00 | 0.00 | 0.00 | 95 | 1022.0 |
| 20260902081607 | 60 | 360 | 18.0 | 31.0 | 0.00 | 0.00 | 0.00 | 94 | 1022.0 |
| 20260902081055 | 60 | 360 | 20.0 | 28.0 | 0.00 | 0.00 | 0.00 | 94 | 1022.0 |
| 20260902080555 | 60 | 273 | 19.0 | 29.0 | 0.00 | 0.00 | 0.00 | 95 | 1021.8 |
| 20260902080113 | 60 | 360 | 21.0 | 29.0 | 0.00 | 0.00 | 0.00 | 95 | 1021.8 |
| 20260902075556 | 60 | 301 | 18.0 | 28.0 | 0.00 | 0.00 | 0.00 | 95 | 1022.0 |
| 20260902075055 | 60 | 360 | 19.0 | 29.0 | 0.00 | 0.00 | 0.00 | 95 | 1021.9 |
| 20260902074606 | 60 | 295 | 20.0 | 29.0 | 0.00 | 0.00 | 0.00 | 95 | 1021.9 |
| 20260902074058 | 60 | 360 | 19.0 | 27.0 | 0.00 | 0.00 | 0.00 | 95 | 1021.9 |
| 20260902073559 | 60 | 360 | 19.0 | 28.0 | 0.00 | 0.00 | 0.00 | 95 | 1021.9 |
| 20260902073103 | 59 | 360 | 20.0 | 28.0 | 0.00 | 0.00 | 0.00 | 94 | 1021.8 |
| 20260902072557 | 59 | 360 | 21.0 | 28.0 | 0.00 | 0.00 | 0.00 | 95 | 1021.7 |
| 20260902072100 | 59 | 360 | 19.0 | 32.0 | 0.00 | 0.00 | 0.00 | 95 | 1021.7 |
| 20260902071600 | 59 | 360 | 18.0 | 32.0 | 0.00 | 0.00 | 0.00 | 95 | 1021.8 |
| 20260902071101 | 59 | 360 | 20.0 | 32.0 | 0.00 | 0.00 | 0.00 | 95 | 1021.8 |
| 20260902070558 | 59 | 360 | 19.0 | 26.0 | 0.00 | 0.00 | 0.00 | 96 | 1021.8 |
| 20260902070108 | 60 | 317 | 18.0 | 26.0 | 0.00 | 0.00 | 0.00 | 95 | 1021.8 |
| 20260902065555 | 60 | 360 | 18.0 | 26.0 | 0.00 | 0.00 | 0.00 | 96 | 1021.7 |
| 20260902065057 | 60 | 252 | 19.0 | 26.0 | 0.00 | 0.00 | 0.00 | 95 | 1021.7 |
| 20260902064600 | 60 | 360 | 18.0 | 25.0 | 0.00 | 0.00 | 0.00 | 95 | 1021.7 |
| 20260902064057 | 60 | 360 | 18.0 | 26.0 | 0.00 | 0.00 | 0.00 | 96 | 1021.6 |
| 20260902063558 | 59 | 360 | 17.0 | 29.0 | 0.00 | 0.00 | 0.00 | 95 | 1021.5 |
| 20260902063105 | 59 | 360 | 21.0 | 29.0 | 0.00 | 0.00 | 0.00 | 96 | 1021.5 |
| 20260902062558 | 59 | 360 | 21.0 | 29.0 | 0.00 | 0.00 | 0.00 | 96 | 1021.5 |
| 20260902062056 | 60 | 360 | 19.0 | 27.0 | 0.00 | 0.00 | 0.00 | 96 | 1021.5 |
| 20260902061614 | 59 | 360 | 20.0 | 26.0 | 0.00 | 0.00 | 0.00 | 96 | 1021.4 |
| 20260902061057 | 60 | 360 | 20.0 | 27.0 | 0.00 | 0.00 | 0.00 | 96 | 1021.5 |
| 20260902060558 | 60 | 360 | 18.0 | 27.0 | 0.00 | 0.00 | 0.00 | 96 | 1021.5 |
| 20260902060108 | 60 | 360 | 16.0 | 28.0 | 0.00 | 0.00 | 0.00 | 96 | 1021.4 |
| 20260902055558 | 59 | 360 | 20.0 | 30.0 | 0.00 | 0.00 | 0.00 | 96 | 1021.5 |
| 20260902055057 | 59 | 360 | 17.0 | 30.0 | 0.00 | 0.00 | 0.00 | 96 | 1021.4 |
| 20260902054602 | 59 | 360 | 22.0 | 30.0 | 0.00 | 0.00 | 0.00 | 96 | 1021.4 |
| 20260902054059 | 60 | 286 | 18.0 | 26.0 | 0.00 | 0.00 | 0.00 | 96 | 1021.4 |
| 20260902053556 | 60 | 360 | 20.0 | 26.0 | 0.00 | 0.00 | 0.00 | 96 | 1021.1 |
| 20260902053057 | 60 | 360 | 18.0 | 25.0 | 0.00 | 0.00 | 0.00 | 96 | 1021.3 |
| 20260902052559 | 60 | 360 | 19.0 | 27.0 | 0.00 | 0.00 | 0.00 | 96 | 1021.3 |
| 20260902052056 | 60 | 257 | 17.0 | 27.0 | 0.00 | 0.00 | 0.00 | 96 | 1021.1 |
| 20260902051602 | 60 | 360 | 19.0 | 26.0 | 0.00 | 0.00 | 0.00 | 96 | 1021.1 |
| 20260902051056 | 60 | 360 | 17.0 | 28.0 | 0.00 | 0.00 | 0.00 | 96 | 1021.1 |
| 20260902050557 | 60 | 360 | 20.0 | 28.0 | 0.00 | 0.00 | 0.00 | 96 | 1021.1 |
| 20260902045556 | 60 | 360 | 18.0 | 27.0 | 0.00 | 0.00 | 0.00 | 96 | 1021.1 |
| 20260902045130 | 60 | 360 | 20.0 | 27.0 | 0.00 | 0.00 | 0.00 | 96 | 1021.3 |
| 20260902044602 | 60 | 360 | 19.0 | 28.0 | 0.00 | 0.00 | 0.00 | 96 | 1021.2 |
| 20260902044055 | 60 | 360 | 20.0 | 28.0 | 0.00 | 0.00 | 0.00 | 96 | 1021.3 |
| 20260902043555 | 60 | 314 | 17.0 | 26.0 | 0.00 | 0.00 | 0.00 | 96 | 1021.2 |
| 20260902043106 | 61 | 298 | 17.0 | 26.0 | 0.00 | 0.00 | 0.00 | 96 | 1021.3 |
| 20260902042558 | 61 | 360 | 17.0 | 26.0 | 0.00 | 0.00 | 0.00 | 96 | 1021.3 |
| 20260902042058 | 61 | 360 | 16.0 | 26.0 | 0.00 | 0.00 | 0.00 | 96 | 1021.4 |
| 20260902041601 | 61 | 258 | 16.0 | 26.0 | 0.00 | 0.00 | 0.00 | 96 | 1021.4 |
| 20260902041056 | 61 | 360 | 17.0 | 26.0 | 0.00 | 0.00 | 0.00 | 95 | 1021.3 |
| 20260902040558 | 61 | 360 | 20.0 | 26.0 | 0.00 | 0.00 | 0.00 | 95 | 1021.3 |
| 20260902040103 | 61 | 360 | 18.0 | 26.0 | 0.00 | 0.00 | 0.00 | 95 | 1021.4 |
| 20260902035556 | 61 | 360 | 15.0 | 25.0 | 0.00 | 0.00 | 0.00 | 95 | 1021.4 |
| 20260902035058 | 60 | 286 | 15.0 | 24.0 | 0.00 | 0.00 | 0.00 | 95 | 1021.4 |
| 20260902034559 | 60 | 313 | 16.0 | 24.0 | 0.00 | 0.00 | 0.00 | 95 | 1021.4 |
| 20260902034057 | 60 | 298 | 16.0 | 25.0 | 0.00 | 0.00 | 0.00 | 95 | 1021.4 |
| 20260902033557 | 60 | 261 | 16.0 | 28.0 | 0.00 | 0.00 | 0.00 | 95 | 1021.5 |
| 20260902033111 | 60 | 319 | 17.0 | 28.0 | 0.00 | 0.00 | 0.00 | 95 | 1021.4 |
| 20260902032556 | 60 | 360 | 18.0 | 28.0 | 0.00 | 0.00 | 0.00 | 95 | 1021.4 |
| 20260902032058 | 60 | 360 | 17.0 | 26.0 | 0.00 | 0.00 | 0.00 | 95 | 1021.4 |
| 20260902031605 | 60 | 360 | 19.0 | 29.0 | 0.00 | 0.00 | 0.00 | 95 | 1021.4 |
| 20260902031058 | 60 | 360 | 21.0 | 29.0 | 0.00 | 0.00 | 0.00 | 95 | 1021.4 |
| 20260902030600 | 60 | 360 | 16.0 | 26.0 | 0.00 | 0.00 | 0.00 | 95 | 1021.5 |
| 20260902025559 | 60 | 360 | 18.0 | 27.0 | 0.00 | 0.00 | 0.00 | 95 | 1021.6 |
| 20260902025058 | 60 | 360 | 19.0 | 27.0 | 0.00 | 0.00 | 0.00 | 95 | 1021.7 |
| 20260902024600 | 60 | 360 | 19.0 | 26.0 | 0.00 | 0.00 | 0.00 | 95 | 1021.7 |
| 20260902024055 | 60 | 360 | 18.0 | 32.0 | 0.00 | 0.00 | 0.00 | 95 | 1021.6 |
| 20260902023557 | 60 | 360 | 22.0 | 32.0 | 0.00 | 0.00 | 0.00 | 95 | 1021.7 |
| 20260902023100 | 60 | 360 | 19.0 | 31.0 | 0.00 | 0.00 | 0.00 | 95 | 1021.7 |
| 20260902022557 | 60 | 360 | 18.0 | 30.0 | 0.00 | 0.00 | 0.00 | 95 | 1021.7 |
| 20260902022055 | 60 | 269 | 20.0 | 30.0 | 0.00 | 0.00 | 0.00 | 95 | 1021.8 |
| 20260902021610 | 60 | 360 | 19.0 | 27.0 | 0.00 | 0.00 | 0.00 | 95 | 1021.8 |
| 20260902021056 | 61 | 294 | 17.0 | 27.0 | 0.00 | 0.00 | 0.00 | 95 | 1022.0 |
| 20260902020557 | 60 | 360 | 16.0 | 25.0 | 0.00 | 0.00 | 0.00 | 95 | 1021.9 |
| 20260902020106 | 60 | 360 | 16.0 | 27.0 | 0.00 | 0.00 | 0.00 | 94 | 1022.1 |
| 20260902015559 | 60 | 302 | 17.0 | 27.0 | 0.00 | 0.00 | 0.00 | 94 | 1021.8 |
| 20260902015057 | 60 | 289 | 18.0 | 28.0 | 0.00 | 0.00 | 0.00 | 94 | 1022.0 |
| 20260902014603 | 61 | 360 | 20.0 | 28.0 | 0.00 | 0.00 | 0.00 | 94 | 1022.2 |
| 20260902014055 | 61 | 360 | 18.0 | 27.0 | 0.00 | 0.00 | 0.00 | 94 | 1022.0 |
| 20260902013557 | 61 | 360 | 18.0 | 27.0 | 0.00 | 0.00 | 0.00 | 93 | 1022.2 |
| 20260902013106 | 60 | 355 | 20.0 | 38.0 | 0.00 | 0.00 | 0.00 | 93 | 1022.2 |
| 20260902012555 | 61 | 295 | 19.0 | 38.0 | 0.00 | 0.00 | 0.00 | 95 | 1022.5 |
| 20260902012057 | 61 | 360 | 17.0 | 27.0 | 0.00 | 0.00 | 0.00 | 95 | 1022.3 |
| 20260902011602 | 61 | 360 | 15.0 | 27.0 | 0.00 | 0.00 | 0.00 | 95 | 1022.4 |
| 20260902011055 | 60 | 286 | 18.0 | 30.0 | 0.00 | 0.00 | 0.00 | 94 | 1022.5 |
| 20260902010556 | 60 | 360 | 20.0 | 30.0 | 0.00 | 0.00 | 0.00 | 94 | 1022.5 |
| 20260902005555 | 60 | 360 | 19.0 | 28.0 | 0.00 | 0.00 | 0.00 | 94 | 1022.5 |
| 20260902005056 | 60 | 360 | 19.0 | 30.0 | 0.00 | 0.00 | 0.00 | 95 | 1022.6 |
| 20260902004559 | 60 | 286 | 16.0 | 30.0 | 0.00 | 0.00 | 0.00 | 94 | 1022.6 |
| 20260902004055 | 60 | 360 | 16.0 | 29.0 | 0.00 | 0.00 | 0.00 | 94 | 1022.7 |
| 20260902003555 | 60 | 271 | 18.0 | 29.0 | 0.00 | 0.00 | 0.00 | 94 | 1022.6 |
| 20260902003059 | 60 | 360 | 19.0 | 29.0 | 0.00 | 0.00 | 0.00 | 94 | 1022.5 |
| 20260902002554 | 60 | 360 | 18.0 | 29.0 | 0.00 | 0.00 | 0.00 | 94 | 1022.6 |
| 20260902002054 | 60 | 360 | 19.0 | 28.0 | 0.00 | 0.00 | 0.00 | 93 | 1022.7 |
| 20260902001603 | 61 | 360 | 18.0 | 27.0 | 0.00 | 0.00 | 0.00 | 93 | 1022.7 |
| 20260902001059 | 61 | 360 | 19.0 | 29.0 | 0.00 | 0.00 | 0.00 | 93 | 1022.9 |
| 20260902000555 | 61 | 360 | 17.0 | 29.0 | 0.00 | 0.00 | 0.00 | 92 | 1022.9 |
| 20260901235558 | 61 | 265 | 20.0 | 30.0 | 0.00 | 0.00 | 0.00 | 93 | 1022.9 |
| 20260901235056 | 61 | 360 | 22.0 | 31.0 | 0.00 | 0.00 | 0.00 | 94 | 1022.9 |
| 20260901234607 | 61 | 360 | 20.0 | 31.0 | 0.00 | 0.00 | 0.00 | 94 | 1022.8 |
| 20260901234057 | 61 | 360 | 20.0 | 27.0 | 0.00 | 0.00 | 0.00 | 94 | 1023.0 |
| 20260901233557 | 61 | 313 | 18.0 | 25.0 | 0.00 | 0.00 | 0.00 | 95 | 1023.2 |
| 20260901233111 | 61 | 325 | 17.0 | 26.0 | 0.00 | 0.00 | 0.00 | 95 | 1023.0 |
| 20260901232559 | 61 | 336 | 19.0 | 32.0 | 0.00 | 0.00 | 0.00 | 94 | 1023.1 |
| 20260901232055 | 61 | 360 | 21.0 | 32.0 | 0.00 | 0.00 | 0.00 | 94 | 1023.1 |
| 20260901231606 | 61 | 295 | 19.0 | 29.0 | 0.00 | 0.00 | 0.00 | 95 | 1023.1 |
| 20260901231056 | 61 | 296 | 19.0 | 29.0 | 0.00 | 0.00 | 0.00 | 94 | 1023.1 |
| 20260901230555 | 61 | 360 | 20.0 | 28.0 | 0.00 | 0.00 | 0.00 | 95 | 1023.2 |
| 20260901230100 | 61 | 360 | 20.0 | 28.0 | 0.00 | 0.00 | 0.00 | 95 | 1023.2 |
| 20260901225556 | 61 | 323 | 19.0 | 28.0 | 0.00 | 0.00 | 0.00 | 95 | 1023.1 |
| 20260901225055 | 62 | 303 | 19.0 | 29.0 | 0.00 | 0.00 | 0.00 | 94 | 1023.1 |
| 20260901224601 | 62 | 285 | 19.0 | 32.0 | 0.00 | 0.00 | 0.00 | 94 | 1023.2 |
| 20260901224059 | 61 | 360 | 20.0 | 32.0 | 0.00 | 0.00 | 0.00 | 94 | 1023.2 |
| 20260901223555 | 61 | 286 | 21.0 | 31.0 | 0.00 | 0.00 | 0.00 | 94 | 1023.2 |
| 20260901223105 | 61 | 304 | 20.0 | 31.0 | 0.00 | 0.00 | 0.00 | 94 | 1023.4 |
| 20260901222555 | 61 | 309 | 21.0 | 29.0 | 0.00 | 0.00 | 0.00 | 94 | 1023.4 |
| 20260901222057 | 61 | 323 | 20.0 | 29.0 | 0.00 | 0.00 | 0.00 | 94 | 1023.3 |
| 20260901221620 | 61 | 360 | 18.0 | 28.0 | 0.00 | 0.00 | 0.00 | 93 | 1023.3 |
| 20260901221056 | 61 | 360 | 19.0 | 31.0 | 0.00 | 0.00 | 0.00 | 94 | 1023.4 |
| 20260901220557 | 61 | 360 | 22.0 | 31.0 | 0.00 | 0.00 | 0.00 | 94 | 1023.4 |
| 20260901220127 | 61 | 360 | 20.0 | 31.0 | 0.00 | 0.00 | 0.00 | 94 | 1023.4 |
| 20260901215555 | 61 | 360 | 20.0 | 29.0 | 0.00 | 0.00 | 0.00 | 94 | 1023.4 |
| 20260901215100 | 61 | 360 | 20.0 | 28.0 | 0.00 | 0.00 | 0.00 | 94 | 1023.5 |
| 20260901214604 | 62 | 360 | 20.0 | 29.0 | 0.00 | 0.00 | 0.00 | 94 | 1023.4 |
| 20260901214056 | 62 | 296 | 20.0 | 29.0 | 0.00 | 0.00 | 0.00 | 93 | 1023.4 |
| 20260901213557 | 61 | 360 | 18.0 | 29.0 | 0.00 | 0.00 | 0.00 | 93 | 1023.5 |
| 20260901213122 | 61 | 360 | 18.0 | 27.0 | 0.00 | 0.00 | 0.00 | 93 | 1023.4 |
| 20260901212555 | 61 | 308 | 18.0 | 27.0 | 0.00 | 0.00 | 0.00 | 93 | 1023.6 |
| 20260901212056 | 61 | 360 | 19.0 | 26.0 | 0.00 | 0.00 | 0.00 | 93 | 1023.4 |
| 20260901211600 | 61 | 360 | 18.0 | 30.0 | 0.00 | 0.00 | 0.00 | 93 | 1023.4 |
| 20260901211056 | 62 | 360 | 20.0 | 30.0 | 0.00 | 0.00 | 0.00 | 93 | 1023.4 |
| 20260901210556 | 62 | 360 | 18.0 | 26.0 | 0.00 | 0.00 | 0.00 | 93 | 1023.3 |
| 20260901210058 | 62 | 296 | 20.0 | 26.0 | 0.00 | 0.00 | 0.00 | 93 | 1023.2 |
| 20260901205557 | 62 | 360 | 16.0 | 28.0 | 0.00 | 0.00 | 0.00 | 93 | 1023.3 |
| 20260901205057 | 62 | 340 | 18.0 | 28.0 | 0.00 | 0.00 | 0.00 | 93 | 1023.4 |
| 20260901204602 | 62 | 360 | 20.0 | 27.0 | 0.00 | 0.00 | 0.00 | 93 | 1023.2 |
| 20260901204100 | 62 | 360 | 19.0 | 26.0 | 0.00 | 0.00 | 0.00 | 94 | 1023.1 |
| 20260901203555 | 62 | 360 | 16.0 | 24.0 | 0.00 | 0.00 | 0.00 | 94 | 1023.0 |
| 20260901203110 | 62 | 360 | 17.0 | 24.0 | 0.00 | 0.00 | 0.00 | 93 | 1023.0 |
| 20260901202555 | 62 | 301 | 19.0 | 26.0 | 0.00 | 0.00 | 0.00 | 94 | 1023.1 |
| 20260901202055 | 62 | 287 | 18.0 | 26.0 | 0.00 | 0.00 | 0.00 | 93 | 1022.9 |
| 20260901201557 | 62 | 360 | 18.0 | 23.0 | 0.00 | 0.00 | 0.00 | 94 | 1022.9 |
| 20260901201057 | 62 | 360 | 16.0 | 24.0 | 0.00 | 0.00 | 0.00 | 93 | 1022.8 |
| 20260901200556 | 62 | 280 | 18.0 | 24.0 | 0.00 | 0.00 | 0.00 | 94 | 1022.8 |
| 20260901200059 | 62 | 360 | 18.0 | 28.0 | 0.00 | 0.00 | 0.00 | 94 | 1022.7 |
| 20260901195557 | 62 | 360 | 17.0 | 28.0 | 0.00 | 0.00 | 0.00 | 93 | 1022.7 |
| 20260901195055 | 62 | 360 | 19.0 | 28.0 | 0.00 | 0.00 | 0.00 | 94 | 1022.7 |
| 20260901194559 | 62 | 294 | 14.0 | 26.0 | 0.00 | 0.00 | 0.00 | 94 | 1022.5 |
| 20260901194055 | 62 | 329 | 18.0 | 26.0 | 0.00 | 0.00 | 0.00 | 94 | 1022.5 |
| 20260901193556 | 62 | 313 | 18.0 | 27.0 | 0.00 | 0.00 | 0.00 | 93 | 1022.6 |
| 20260901193106 | 62 | 296 | 18.0 | 27.0 | 0.00 | 0.00 | 0.00 | 93 | 1022.6 |
| 20260901192555 | 62 | 293 | 16.0 | 24.0 | 0.00 | 0.00 | 0.00 | 93 | 1022.5 |
| 20260901192056 | 62 | 316 | 18.0 | 24.0 | 0.00 | 0.00 | 0.00 | 93 | 1022.6 |
| 20260901191609 | 63 | 327 | 16.0 | 26.0 | 0.00 | 0.00 | 0.00 | 93 | 1022.5 |
| 20260901191055 | 62 | 360 | 19.0 | 26.0 | 0.00 | 0.00 | 0.00 | 93 | 1022.6 |
| 20260901190557 | 63 | 360 | 18.0 | 25.0 | 0.00 | 0.00 | 0.00 | 93 | 1022.5 |
| 20260901190109 | 63 | 324 | 17.0 | 28.0 | 0.00 | 0.00 | 0.00 | 93 | 1022.5 |
| 20260901185556 | 63 | 360 | 15.0 | 28.0 | 0.00 | 0.00 | 0.00 | 93 | 1022.5 |